Flag for Norway Weather past 2 weeks in Halden, Norway

Now
61 °F

Cool.


Feels Like: 61 °F
Forecast: 54 / 79 °F
Wind: 3 mph from Southwest

Location: Stromtangen Fyr

Current Time: Jul 5, 2015 at 1:07:01 AM

Latest Report: Jul 5, 2015 at 12:00 AM


Visibility: N/A

Pressure: 30.08 "Hg

Humidity: 90%

Dew point: 58 °F

Location of HaldenLocation

Historic Weather in Halden — Graph

°F

Halden temperature yesterday

Maximum temperature yesterday: 62 °F (at 1:00 PM)
Minimum temperature yesterday: 59 °F (at 11:00 AM)
Average temperature yesterday: 61 °F

Past Weeks' High & Low Weather Summary

 TemperatureHumidityPressure
High70 °F (Jun 30, 4:00 PM)100% (Jun 29, 2:00 PM)30.37 "Hg (Jun 29, 2:00 PM)
Low53 °F (Jun 26, 12:00 AM)56% (Jun 20, 10:00 AM)29.66 "Hg (Jun 22, 8:00 PM)
Average60 °F83%29.98 "Hg
* Reported Jun 19 11:00 PM — Jul 4 11:00 PM, Halden, Weather by CustomWeather, © 2015

Note: Actual official high and low records may vary slightly from our data, if they occured in-between our weather recording intervals... More about our weather records

Advertising

Halden weather history for previous 24 hours

 ConditionsComfort  
Time TempWeatherWind HumidityBarometerVisibility
11:00 PM
Sat, Jul 4
61 °FCool.5 mph90%30.09 "HgN/A
10:00 PM61 °FCool.7 mph89%30.09 "HgN/A
9:00 PM61 °FCool.3 mph87%30.09 "HgN/A
8:00 PM61 °FCool.2 mph86%30.09 "HgN/A
7:00 PM61 °FCool.3 mph86%30.11 "HgN/A
6:00 PM61 °FCool.5 mph85%30.13 "HgN/A
5:00 PM62 °FCool.3 mph82%30.14 "HgN/A
4:00 PM62 °FCool.5 mph82%30.16 "HgN/A
3:00 PM62 °FCool.6 mph83%30.16 "HgN/A
2:00 PM62 °FCool.5 mph83%30.17 "HgN/A
1:00 PM62 °FCool.2 mph82%30.17 "HgN/A
12:00 PM60 °FCool.5 mph94%30.19 "HgN/A
11:00 AM59 °FCool.5 mph96%30.21 "HgN/A
10:00 AM60 °FCool.3 mph96%30.20 "HgN/A
9:00 AM60 °FCool.2 mph96%30.19 "HgN/A
8:00 AM60 °FCool.2 mph97%30.17 "HgN/A
7:00 AM60 °FCool.3 mph97%30.17 "HgN/A
6:00 AM60 °FCool.3 mph97%30.19 "HgN/A
5:00 AM60 °FCool.3 mph97%30.19 "HgN/A
4:00 AM60 °FCool.5 mph97%30.19 "HgN/A
3:00 AM60 °FCool.6 mph97%30.20 "HgN/A
2:00 AM60 °FCool.5 mph97%30.20 "HgN/A
1:00 AM60 °FCool.6 mph96%30.20 "HgN/A
Weather by CustomWeather, © 2015

See weather overviewHow to use our weather pages